Тетеров

Германия     53°46′12″N   12°34′24″E
темп.,
°C
ветер,
м/с
пор.,
м/с
влажн.,
%
обл.,
%
осадки,
мм/ч
давл.,
гПа
погр.,
м
11 апреля, вс
вс1123:00+4в51072100 0.0 1016298
02:00+3в61283100 0.7 1014647
05:00+4вюв81495100 1.6 1011619
08:00+5юв61397100 2.2 1009460
11:00+8ю51193100 0.6 1009435
14:00+14юз577395 0.7 10091128
17:00+13зюз347998 0.9 1009606
20:00+7зсз5892100 1.1 1011367
12 апреля, пн
пн1223:00+4зсз61095100 0.8 1013522
02:00+3зсз6991100 6.1 1015711
05:00+2зсз71080100 0.0 1017902
08:00+3зсз5977100 0.0 10201085
11:00+5зсз686199 0.0 10221311
14:00+7зсз6850100 0.0 10231709
17:00+8зсз574881 0.0 10221771
20:00+3зсз3473100 0.4 102464
13 апреля, вт
вт1323:00+1зюз41083100 0.0 1025218
02:00−1зюз4991100 0.0 1026197
05:00−1зюз411925 0.0 1026252
08:00+1зюз5118562 0.0 1027379
11:00+7з786183 0.0 10271570
14:00+8сз784879 0.3 10272131
17:00+8сз685173 0.1 10271861
20:00+3сз36785 0.3 102892
14 апреля, ср
ср1423:00+1з411912 0.0 1029234
02:00−1з410965 0.0 1029208
05:00−1з49979 0.0 1029174
08:00+2зсз498762 0.0 1030394
11:00+7ссз666482 0.1 10291359
14:00+7с566299 0.8 10291295
17:00+7ссв4668100 0.7 10291147
20:00+3св358767 1.0 103096
15 апреля, чт
чт1523:00+1ссв3591100 0.0 1031108
02:00+1ссв3484100 0.0 103163
05:000ссв3380100 0.0 103158
08:00+2ссв3874100 0.0 1032313
11:00+7ссв61057100 0.0 10321464
14:00+7св81151100 0.0 10321499
17:00+7св7136190 0.0 10321411
20:00+5св5117484 0.0 1032539